カタログに戻る

STARLINK-34002

運用中通信VLEO
NORAD 63856·PAYLOAD·🇺🇸 United States

打ち上げ May 7, 2025 から Cape Canaveral Space Force Station

Loading…

次のパス (今後24時間)

TLE

最新Source: CelesTrak SupGP

元期: Sep 14, 2026, 22:26 UTC

1 63856C 25093W   26257.93520833  .00021604  00000+0  78255-3 0  2571
2 63856  43.0032  89.1864 0001600 272.6585 104.6806 15.27565566    14

AllMySatでSTARLINK-34002をリアルタイム追跡

Download on the App Store